Torna al catalogo

STARLINK-31134

AttivoComunicazioniVLEO
NORAD 58621·PAYLOAD·🇺🇸 United States

Lanciato Dec 23, 2023 da Cape Canaveral Space Force Station

Loading…

Prossimi Passaggi (prossime 24 ore)

TLE

AggiornatoSource: CelesTrak SupGP

Epoca: Sep 15, 2026, 02:16 UTC

1 58621C 23203D   26258.09493056  .00000162  00000+0  58766-5 0  2584
2 58621  43.0036  77.8637 0001829 271.9739  80.3307 15.27583999    16

Traccia STARLINK-31134 in tempo reale con AllMySat

Download on the App Store